Location: Unspecified
(0.0000°N, 0.0000°E)
Time: 17:25:53
(UTC+00:00)

Cosmos 158 - Visible Passes

Search period start: 15 May 2026 00:00
Search period end: 25 May 2026 00:00
Orbit: 728 x 810 km, 74.0° (Epoch: 15 May)

Date Brightness Start Highest point End Pass type
(mag) Time Alt. Az. Time Alt. Az. Time Alt. Az.
15 May 8.8 03:33:17 10° ENE 03:34:38 11° ENE 03:35:58 10° E visible
15 May 5.9 05:11:15 10° NNW 05:16:26 45° WSW 05:21:36 10° S visible
16 May 5.5 04:34:08 10° NNW 04:39:36 89° ENE 04:45:03 10° SSE visible
17 May 6.7 03:57:36 10° N 04:02:46 44° ENE 04:07:55 10° SSE visible
18 May 7.8 03:21:47 10° NNE 03:25:56 22° ENE 03:30:05 10° SE visible
18 May 6.6 05:03:30 10° NW 05:07:43 23° WSW 05:11:56 10° SSW visible
19 May 8.6 02:48:00 10° ENE 02:49:05 11° ENE 02:50:09 10° E visible
19 May 5.8 04:25:42 10° NNW 04:30:53 46° WSW 04:36:03 10° S visible
20 May 6.2 03:48:36 10° NNW 03:52:18 45° N 03:52:18 45° N visible
21 May 8.0 03:12:05 10° N 03:13:06 15° NNE 03:13:06 15° NNE visible
